ECCDI GMMN-LPMA

Flight info

Callsign ECCDI
Flight time 1h 32m
Altitude 43000
Route ODAXA UH899 IBALU DCT SUBAL/N0492F450 DCT LIDRO
Aircraft C750/M-SBDE3FGHRWXY/S

Departure

Time 2026-05-06 21:25
Airport Mohammed V International Airport (GMMN)

Arrival

Time 2026-05-06 22:58
Airport Cristiano Ronaldo International Airport (LPMA)
Time Latitude Longitude Altitude Speed Heading
2026-05-06 20:57 33.37001 -7.58314 650 ft 0 kts 162°
2026-05-06 21:17 33.36997 -7.58313 653 ft 2 kts 162°
2026-05-06 21:17 33.36979 -7.58306 650 ft 3 kts 161°
2026-05-06 21:17 33.36949 -7.58296 653 ft 4 kts 181°
2026-05-06 21:18 33.36921 -7.58320 651 ft 6 kts 240°
2026-05-06 21:18 33.36912 -7.58372 651 ft 8 kts 259°
2026-05-06 21:18 33.36875 -7.58455 651 ft 10 kts 205°
2026-05-06 21:18 33.36827 -7.58453 651 ft 11 kts 166°
2026-05-06 21:19 33.36751 -7.58427 651 ft 12 kts 164°
2026-05-06 21:19 33.36664 -7.58398 652 ft 14 kts 164°
2026-05-06 21:19 33.36590 -7.58372 653 ft 11 kts 164°
2026-05-06 21:19 33.36516 -7.58347 653 ft 12 kts 164°
2026-05-06 21:20 33.36422 -7.58314 653 ft 16 kts 164°
2026-05-06 21:20 33.36303 -7.58273 657 ft 20 kts 163°
2026-05-06 21:20 33.36161 -7.58225 658 ft 23 kts 166°
2026-05-06 21:20 33.35996 -7.58171 656 ft 25 kts 164°
2026-05-06 21:21 33.35825 -7.58113 657 ft 26 kts 164°
2026-05-06 21:21 33.35653 -7.58052 658 ft 26 kts 164°
2026-05-06 21:21 33.35481 -7.57995 660 ft 24 kts 163°
2026-05-06 21:21 33.35356 -7.57950 660 ft 11 kts 164°
2026-05-06 21:22 33.35291 -7.57949 661 ft 7 kts 215°
2026-05-06 21:22 33.35254 -7.58009 661 ft 14 kts 243°
2026-05-06 21:22 33.35223 -7.58128 661 ft 16 kts 253°
2026-05-06 21:22 33.35233 -7.58256 662 ft 17 kts 320°
2026-05-06 21:23 33.35305 -7.58295 662 ft 0 kts 344°
2026-05-06 21:24 33.35587 -7.58391 657 ft 99 kts 344°
2026-05-06 21:25 33.36456 -7.58682 882 ft 142 kts 345°
2026-05-06 21:25 33.37481 -7.58990 1377 ft 160 kts 347°
2026-05-06 21:25 33.38619 -7.59415 1841 ft 190 kts 334°
2026-05-06 21:25 33.39646 -7.60599 2281 ft 226 kts 310°
2026-05-06 21:26 33.40585 -7.62145 3270 ft 229 kts 308°
2026-05-06 21:26 33.41558 -7.63672 4295 ft 234 kts 309°
2026-05-06 21:26 33.42589 -7.65228 5235 ft 242 kts 307°
2026-05-06 21:26 33.43629 -7.66815 6270 ft 244 kts 306°
2026-05-06 21:27 33.44680 -7.68436 7242 ft 247 kts 306°
2026-05-06 21:27 33.45739 -7.70067 8304 ft 250 kts 305°
2026-05-06 21:27 33.46812 -7.71716 9388 ft 253 kts 305°
2026-05-06 21:27 33.47899 -7.73389 10325 ft 256 kts 305°
2026-05-06 21:28 33.49004 -7.75089 11177 ft 260 kts 305°
2026-05-06 21:28 33.50124 -7.76814 12032 ft 264 kts 305°
2026-05-06 21:28 33.51259 -7.78564 12901 ft 268 kts 304°
2026-05-06 21:28 33.52409 -7.80337 13760 ft 271 kts 304°
2026-05-06 21:29 33.53643 -7.82100 14287 ft 287 kts 312°
2026-05-06 21:29 33.55280 -7.83652 14382 ft 318 kts 320°
2026-05-06 21:29 33.57158 -7.85258 14449 ft 345 kts 321°
2026-05-06 21:29 33.59147 -7.87051 14543 ft 367 kts 319°
2026-05-06 21:30 33.61113 -7.88899 14981 ft 342 kts 319°
2026-05-06 21:30 33.62878 -7.90524 14986 ft 315 kts 319°
2026-05-06 21:30 33.64563 -7.92053 14978 ft 289 kts 319°
2026-05-06 21:30 33.66108 -7.93470 14975 ft 270 kts 318°
2026-05-06 21:31 33.67562 -7.94817 14985 ft 267 kts 318°
2026-05-06 21:31 33.69050 -7.96193 14985 ft 271 kts 318°
2026-05-06 21:31 33.70553 -7.97573 14993 ft 273 kts 318°
2026-05-06 21:31 33.72060 -7.98957 14999 ft 273 kts 318°
2026-05-06 21:32 33.73566 -8.00344 15005 ft 273 kts 318°
2026-05-06 21:32 33.76590 -8.03131 15018 ft 273 kts 318°
2026-05-06 21:32 33.78097 -8.04521 15011 ft 273 kts 318°
2026-05-06 21:33 33.79606 -8.05912 15013 ft 273 kts 318°
2026-05-06 21:33 33.81113 -8.07303 15017 ft 273 kts 318°
2026-05-06 21:33 33.82603 -8.08680 15016 ft 273 kts 318°
2026-05-06 21:33 33.84111 -8.10072 15016 ft 273 kts 318°
2026-05-06 21:34 33.85619 -8.11465 15018 ft 273 kts 318°
2026-05-06 21:34 33.87132 -8.12864 15015 ft 273 kts 318°
2026-05-06 21:34 33.88642 -8.14261 15015 ft 274 kts 318°
2026-05-06 21:34 33.90136 -8.15644 15015 ft 273 kts 318°
2026-05-06 21:35 33.91643 -8.17039 15016 ft 273 kts 318°
2026-05-06 21:35 33.93159 -8.18445 15019 ft 282 kts 318°
2026-05-06 21:35 33.94795 -8.19971 15100 ft 312 kts 318°
2026-05-06 21:35 33.96584 -8.21632 15217 ft 338 kts 319°
2026-05-06 21:36 33.98522 -8.23423 15281 ft 363 kts 319°
2026-05-06 21:36 34.00444 -8.25466 15641 ft 370 kts 311°
2026-05-06 21:36 34.02245 -8.27670 16455 ft 370 kts 311°
2026-05-06 21:36 34.04070 -8.29881 17147 ft 374 kts 311°
2026-05-06 21:37 34.05886 -8.32048 18465 ft 355 kts 311°
2026-05-06 21:37 34.07622 -8.34132 19162 ft 363 kts 311°
2026-05-06 21:37 34.09449 -8.36367 19221 ft 385 kts 311°
2026-05-06 21:37 34.11345 -8.38662 19981 ft 385 kts 311°
2026-05-06 21:38 34.13258 -8.40959 20742 ft 388 kts 311°
2026-05-06 21:38 34.15170 -8.43272 21445 ft 391 kts 311°
2026-05-06 21:38 34.17095 -8.45612 22174 ft 394 kts 311°
2026-05-06 21:38 34.19036 -8.47967 22887 ft 397 kts 311°
2026-05-06 21:39 34.20996 -8.50341 23577 ft 400 kts 311°
2026-05-06 21:39 34.22942 -8.52702 24137 ft 403 kts 311°
2026-05-06 21:39 34.24929 -8.55118 24683 ft 407 kts 311°
2026-05-06 21:39 34.26933 -8.57554 25230 ft 410 kts 311°
2026-05-06 21:40 34.28955 -8.60013 25775 ft 414 kts 311°
2026-05-06 21:40 34.30992 -8.62493 26318 ft 417 kts 311°
2026-05-06 21:40 34.33051 -8.65002 26860 ft 421 kts 310°
2026-05-06 21:40 34.35120 -8.67524 27395 ft 424 kts 310°
2026-05-06 21:41 34.37209 -8.70074 27940 ft 428 kts 310°
2026-05-06 21:41 34.39314 -8.72644 28486 ft 432 kts 310°
2026-05-06 21:41 34.41447 -8.75250 29024 ft 435 kts 310°
2026-05-06 21:41 34.43518 -8.77880 29494 ft 436 kts 306°
2026-05-06 21:42 34.45114 -8.81001 29979 ft 433 kts 292°
2026-05-06 21:42 34.46273 -8.84373 30478 ft 434 kts 289°
2026-05-06 21:42 34.47384 -8.87792 30919 ft 437 kts 289°
2026-05-06 21:42 34.48502 -8.91213 31561 ft 435 kts 289°
2026-05-06 21:43 34.49632 -8.94603 32245 ft 432 kts 290°
2026-05-06 21:43 34.50741 -8.97946 32881 ft 431 kts 290°
2026-05-06 21:43 34.51847 -9.01318 33546 ft 429 kts 289°
2026-05-06 21:43 34.52948 -9.04682 34195 ft 428 kts 290°
2026-05-06 21:44 34.54051 -9.08031 34731 ft 427 kts 290°
2026-05-06 21:44 34.55153 -9.11382 35247 ft 427 kts 290°
2026-05-06 21:44 34.56253 -9.14739 35776 ft 427 kts 290°
2026-05-06 21:44 34.57349 -9.18088 36315 ft 427 kts 289°
2026-05-06 21:45 34.58446 -9.21441 36853 ft 427 kts 289°
2026-05-06 21:45 34.59540 -9.24789 37407 ft 427 kts 289°
2026-05-06 21:45 34.60620 -9.28096 37959 ft 427 kts 289°
2026-05-06 21:45 34.61689 -9.31376 38501 ft 427 kts 289°
2026-05-06 21:46 34.62782 -9.34732 38988 ft 427 kts 289°
2026-05-06 21:46 34.63876 -9.38093 39433 ft 427 kts 289°
2026-05-06 21:46 34.64966 -9.41450 39884 ft 427 kts 289°
2026-05-06 21:46 34.66057 -9.44811 40337 ft 428 kts 289°
2026-05-06 21:47 34.67149 -9.48177 40794 ft 428 kts 289°
2026-05-06 21:47 34.68239 -9.51542 41242 ft 428 kts 289°
2026-05-06 21:47 34.69330 -9.54915 41699 ft 428 kts 289°
2026-05-06 21:47 34.70419 -9.58283 42158 ft 428 kts 289°
2026-05-06 21:48 34.71508 -9.61658 42604 ft 428 kts 289°
2026-05-06 21:48 34.72581 -9.64986 43039 ft 428 kts 289°
2026-05-06 21:48 34.73670 -9.68363 43469 ft 428 kts 289°
2026-05-06 21:48 34.74756 -9.71739 43906 ft 428 kts 289°
2026-05-06 21:49 34.75845 -9.75130 44323 ft 428 kts 289°
2026-05-06 21:49 34.76929 -9.78505 44717 ft 429 kts 289°
2026-05-06 21:49 34.78013 -9.81884 45071 ft 429 kts 289°
2026-05-06 21:49 34.79094 -9.85260 45407 ft 429 kts 289°
2026-05-06 21:50 34.80176 -9.88643 45728 ft 429 kts 289°
2026-05-06 21:50 34.81246 -9.91990 46030 ft 429 kts 289°
2026-05-06 21:50 34.82329 -9.95382 46319 ft 429 kts 289°
2026-05-06 21:50 34.83408 -9.98766 46595 ft 429 kts 289°
2026-05-06 21:51 34.84486 -10.02153 46862 ft 429 kts 289°
2026-05-06 21:51 34.85564 -10.05539 47114 ft 429 kts 289°
2026-05-06 21:51 34.86640 -10.08925 47355 ft 429 kts 289°
2026-05-06 21:51 34.87716 -10.12315 47600 ft 429 kts 289°
2026-05-06 21:52 34.88790 -10.15703 47835 ft 429 kts 289°
2026-05-06 21:52 34.89865 -10.19098 48055 ft 429 kts 289°
2026-05-06 21:52 34.90940 -10.22495 48275 ft 429 kts 289°
2026-05-06 21:52 34.92012 -10.25889 48501 ft 429 kts 289°
2026-05-06 21:53 34.93071 -10.29244 48712 ft 429 kts 289°
2026-05-06 21:53 34.94145 -10.32650 48918 ft 429 kts 289°
2026-05-06 21:53 34.95216 -10.36050 49120 ft 429 kts 289°
2026-05-06 21:53 34.96286 -10.39451 49329 ft 429 kts 289°
2026-05-06 21:54 34.97355 -10.42856 49526 ft 429 kts 289°
2026-05-06 21:54 34.98426 -10.46267 49720 ft 429 kts 289°
2026-05-06 21:54 34.99479 -10.49627 49900 ft 429 kts 289°
2026-05-06 21:54 35.00546 -10.53035 50038 ft 431 kts 289°
2026-05-06 21:55 35.02703 -10.59939 50028 ft 439 kts 289°
2026-05-06 21:55 35.04897 -10.66975 50030 ft 447 kts 289°
2026-05-06 21:56 35.07128 -10.74146 50039 ft 455 kts 289°
2026-05-06 21:56 35.09389 -10.81433 50043 ft 462 kts 289°
2026-05-06 21:57 35.11658 -10.88763 50036 ft 466 kts 289°
2026-05-06 21:57 35.13940 -10.96151 50040 ft 464 kts 289°
2026-05-06 21:58 35.16203 -11.03499 50024 ft 459 kts 289°
2026-05-06 21:58 35.18461 -11.10852 50031 ft 464 kts 289°
2026-05-06 21:59 35.20725 -11.18240 50040 ft 464 kts 289°
2026-05-06 21:59 35.22981 -11.25621 50038 ft 463 kts 289°
2026-05-06 22:00 35.25213 -11.32943 50043 ft 462 kts 289°
2026-05-06 22:00 35.27454 -11.40312 50039 ft 461 kts 289°
2026-05-06 22:01 35.29687 -11.47672 50039 ft 460 kts 289°
2026-05-06 22:01 35.31911 -11.55023 50049 ft 459 kts 289°
2026-05-06 22:02 35.34123 -11.62354 50041 ft 459 kts 289°
2026-05-06 22:02 35.36320 -11.69650 50044 ft 458 kts 289°
2026-05-06 22:03 35.38519 -11.76976 50032 ft 457 kts 289°
2026-05-06 22:03 35.40713 -11.84302 50047 ft 457 kts 289°
2026-05-06 22:04 35.42886 -11.91574 50039 ft 457 kts 289°
2026-05-06 22:04 35.45069 -11.98901 50045 ft 456 kts 289°
2026-05-06 22:05 35.47249 -12.06236 50048 ft 456 kts 289°
2026-05-06 22:05 35.49408 -12.13520 50048 ft 456 kts 289°
2026-05-06 22:06 35.51517 -12.20856 50030 ft 456 kts 285°
2026-05-06 22:06 35.52322 -12.27294 50041 ft 456 kts 272°
2026-05-06 22:07 35.51659 -12.34984 50046 ft 459 kts 257°
2026-05-06 22:07 35.49236 -12.42254 50055 ft 464 kts 242°
2026-05-06 22:08 35.45893 -12.49030 50069 ft 464 kts 242°
2026-05-06 22:08 35.42563 -12.55804 50070 ft 463 kts 242°
2026-05-06 22:09 35.39216 -12.62561 50056 ft 463 kts 241°
2026-05-06 22:09 35.35893 -12.69279 50052 ft 463 kts 241°
2026-05-06 22:10 35.32541 -12.76032 50060 ft 463 kts 241°
2026-05-06 22:10 35.29188 -12.82778 50063 ft 463 kts 241°
2026-05-06 22:11 35.25847 -12.89484 50054 ft 463 kts 241°
2026-05-06 22:11 35.22484 -12.96223 50055 ft 463 kts 241°
2026-05-06 22:12 35.19118 -13.02954 50056 ft 463 kts 241°
2026-05-06 22:12 35.15753 -13.09671 50068 ft 464 kts 241°
2026-05-06 22:13 35.12382 -13.16387 50061 ft 463 kts 241°
2026-05-06 22:13 35.09026 -13.23060 50061 ft 464 kts 241°
2026-05-06 22:14 35.05645 -13.29770 50055 ft 464 kts 241°
2026-05-06 22:14 35.02259 -13.36477 50066 ft 464 kts 241°
2026-05-06 22:15 34.98864 -13.43189 50058 ft 464 kts 241°
2026-05-06 22:15 34.95473 -13.49882 50079 ft 469 kts 240°
2026-05-06 22:16 34.92020 -13.56680 50080 ft 472 kts 240°
2026-05-06 22:16 34.88556 -13.63488 50073 ft 472 kts 240°
2026-05-06 22:17 34.85094 -13.70280 50072 ft 472 kts 240°
2026-05-06 22:17 34.81629 -13.77065 50076 ft 472 kts 240°
2026-05-06 22:18 34.78158 -13.83848 50072 ft 472 kts 240°
2026-05-06 22:18 34.74698 -13.90595 50079 ft 473 kts 240°
2026-05-06 22:19 34.71210 -13.97387 50072 ft 473 kts 240°
2026-05-06 22:19 34.67716 -14.04176 50076 ft 473 kts 240°
2026-05-06 22:20 34.64218 -14.10959 50082 ft 473 kts 240°
2026-05-06 22:20 34.60715 -14.17740 50081 ft 474 kts 240°
2026-05-06 22:21 34.57208 -14.24514 50078 ft 474 kts 240°
2026-05-06 22:21 34.53693 -14.31292 50077 ft 474 kts 240°
2026-05-06 22:22 34.50200 -14.38013 50080 ft 474 kts 240°
2026-05-06 22:22 34.46675 -14.44785 50097 ft 474 kts 240°
2026-05-06 22:23 34.43170 -14.51505 50087 ft 475 kts 240°
2026-05-06 22:23 34.39636 -14.58267 50089 ft 475 kts 240°
2026-05-06 22:24 34.36488 -14.65245 50085 ft 470 kts 251°
2026-05-06 22:24 34.33855 -14.72497 50091 ft 475 kts 240°
2026-05-06 22:25 34.30147 -14.79130 50114 ft 476 kts 239°
2026-05-06 22:25 34.26604 -14.85840 50105 ft 475 kts 240°
2026-05-06 22:26 34.24833 -14.89194 49959 ft 470 kts 239°
2026-05-06 22:26 34.23025 -14.92434 49274 ft 453 kts 238°
2026-05-06 22:26 34.21307 -14.95505 48677 ft 430 kts 239°
2026-05-06 22:26 34.19691 -14.98539 48122 ft 429 kts 240°
2026-05-06 22:27 34.18083 -15.01580 47562 ft 430 kts 240°
2026-05-06 22:27 34.16431 -15.04607 47000 ft 432 kts 239°
2026-05-06 22:27 34.14764 -15.07633 46425 ft 433 kts 239°
2026-05-06 22:27 34.13107 -15.10683 45848 ft 434 kts 239°
2026-05-06 22:28 34.11478 -15.13704 45282 ft 435 kts 239°
2026-05-06 22:28 34.09815 -15.16760 44681 ft 432 kts 239°
2026-05-06 22:28 34.08173 -15.19756 44105 ft 425 kts 239°
2026-05-06 22:28 34.06548 -15.22734 43544 ft 426 kts 240°
2026-05-06 22:29 34.04915 -15.25739 42979 ft 430 kts 240°
2026-05-06 22:29 34.03267 -15.28760 42417 ft 433 kts 240°
2026-05-06 22:29 34.01604 -15.31793 41843 ft 434 kts 240°
2026-05-06 22:29 33.99941 -15.34830 41273 ft 433 kts 240°
2026-05-06 22:30 33.98284 -15.37859 40700 ft 431 kts 240°
2026-05-06 22:30 33.96628 -15.40885 40129 ft 437 kts 241°
2026-05-06 22:30 33.94959 -15.43928 39554 ft 426 kts 241°
2026-05-06 22:30 33.93328 -15.46891 39002 ft 435 kts 241°
2026-05-06 22:31 33.91659 -15.49934 38362 ft 430 kts 241°
2026-05-06 22:31 33.90026 -15.52896 37809 ft 424 kts 241°
2026-05-06 22:31 33.88390 -15.55875 37255 ft 429 kts 241°
2026-05-06 22:31 33.86738 -15.58883 36686 ft 433 kts 241°
2026-05-06 22:32 33.85067 -15.61909 36112 ft 434 kts 241°
2026-05-06 22:32 33.83393 -15.64937 35541 ft 435 kts 241°
2026-05-06 22:32 33.81718 -15.67971 34965 ft 435 kts 241°
2026-05-06 22:32 33.80040 -15.71012 34392 ft 436 kts 241°
2026-05-06 22:33 33.78358 -15.74053 33786 ft 436 kts 241°
2026-05-06 22:33 33.76671 -15.77098 33205 ft 438 kts 240°
2026-05-06 22:33 33.75002 -15.80112 32639 ft 440 kts 240°
2026-05-06 22:33 33.73302 -15.83180 32054 ft 442 kts 240°
2026-05-06 22:34 33.71594 -15.86257 31473 ft 444 kts 240°
2026-05-06 22:34 33.69873 -15.89353 30885 ft 446 kts 240°
2026-05-06 22:34 33.68143 -15.92454 30292 ft 446 kts 239°
2026-05-06 22:34 33.66082 -15.95254 29617 ft 449 kts 226°
2026-05-06 22:35 33.63555 -15.97458 29072 ft 450 kts 217°
2026-05-06 22:35 33.60911 -15.99466 28489 ft 447 kts 216°
2026-05-06 22:35 33.58284 -16.01448 27898 ft 443 kts 217°
2026-05-06 22:35 33.55730 -16.03413 27318 ft 439 kts 217°
2026-05-06 22:36 33.53174 -16.05392 26747 ft 436 kts 217°
2026-05-06 22:36 33.50631 -16.07336 26179 ft 428 kts 217°
2026-05-06 22:36 33.48234 -16.09144 26103 ft 386 kts 217°
2026-05-06 22:36 33.46069 -16.10790 26017 ft 351 kts 217°
2026-05-06 22:37 33.44055 -16.12341 24667 ft 345 kts 218°
2026-05-06 22:37 33.41929 -16.14000 22941 ft 387 kts 217°
2026-05-06 22:37 33.39614 -16.15764 22750 ft 397 kts 216°
2026-05-06 22:37 33.37263 -16.17528 22801 ft 399 kts 216°
2026-05-06 22:38 33.34922 -16.19307 22597 ft 400 kts 216°
2026-05-06 22:38 33.32588 -16.21103 22078 ft 405 kts 216°
2026-05-06 22:38 33.30207 -16.22919 21447 ft 407 kts 216°
2026-05-06 22:38 33.27829 -16.24717 20885 ft 403 kts 216°
2026-05-06 22:39 33.25464 -16.26510 20354 ft 402 kts 216°
2026-05-06 22:39 33.23114 -16.28300 19827 ft 399 kts 216°
2026-05-06 22:39 33.20775 -16.30078 19301 ft 397 kts 215°
2026-05-06 22:39 33.18446 -16.31842 18782 ft 395 kts 215°
2026-05-06 22:40 33.16128 -16.33597 18237 ft 393 kts 215°
2026-05-06 22:40 33.13830 -16.35339 17706 ft 389 kts 215°
2026-05-06 22:40 33.11552 -16.37064 17194 ft 387 kts 215°
2026-05-06 22:40 33.09284 -16.38779 16640 ft 384 kts 215°
2026-05-06 22:41 33.04867 -16.42117 15141 ft 373 kts 215°
2026-05-06 22:41 33.02674 -16.43774 14536 ft 372 kts 214°
2026-05-06 22:41 33.00493 -16.45422 13708 ft 370 kts 214°
2026-05-06 22:42 32.98354 -16.47032 12700 ft 351 kts 214°
2026-05-06 22:42 32.96411 -16.48489 11687 ft 313 kts 214°
2026-05-06 22:42 32.94600 -16.49858 10703 ft 305 kts 214°
2026-05-06 22:42 32.92802 -16.51255 9796 ft 316 kts 217°
2026-05-06 22:43 32.91121 -16.52942 8855 ft 314 kts 224°
2026-05-06 22:43 32.89541 -16.54714 7971 ft 310 kts 224°
2026-05-06 22:43 32.88014 -16.56386 7098 ft 275 kts 223°
2026-05-06 22:43 32.86533 -16.57938 6261 ft 291 kts 222°
2026-05-06 22:44 32.84970 -16.59428 5473 ft 285 kts 213°
2026-05-06 22:44 32.83274 -16.60510 4712 ft 269 kts 204°
2026-05-06 22:44 32.81598 -16.61430 4026 ft 268 kts 204°
2026-05-06 22:44 32.79897 -16.62424 3438 ft 271 kts 206°
2026-05-06 22:45 32.78226 -16.63460 2989 ft 270 kts 206°
2026-05-06 22:45 32.76552 -16.64484 3021 ft 272 kts 205°
2026-05-06 22:45 32.74857 -16.65498 3022 ft 273 kts 205°
2026-05-06 22:45 32.73153 -16.66519 3023 ft 276 kts 205°
2026-05-06 22:46 32.71448 -16.67548 3015 ft 277 kts 206°
2026-05-06 22:46 32.69742 -16.68577 3022 ft 272 kts 205°
2026-05-06 22:46 32.68062 -16.69587 3013 ft 274 kts 205°
2026-05-06 22:46 32.66358 -16.70611 3014 ft 273 kts 205°
2026-05-06 22:47 32.64655 -16.71635 3010 ft 272 kts 205°
2026-05-06 22:47 32.62951 -16.72659 3015 ft 275 kts 205°
2026-05-06 22:47 32.61246 -16.73683 3016 ft 274 kts 205°
2026-05-06 22:47 32.59541 -16.74707 3014 ft 274 kts 205°
2026-05-06 22:48 32.57846 -16.75724 3013 ft 275 kts 205°
2026-05-06 22:48 32.56148 -16.76742 3011 ft 271 kts 205°
2026-05-06 22:48 32.54447 -16.77762 3014 ft 274 kts 205°
2026-05-06 22:48 32.52803 -16.78748 3006 ft 254 kts 205°
2026-05-06 22:49 32.51253 -16.79678 2986 ft 252 kts 205°
2026-05-06 22:49 32.49684 -16.80615 2995 ft 252 kts 205°
2026-05-06 22:49 32.48135 -16.81543 2987 ft 239 kts 205°
2026-05-06 22:49 32.46779 -16.82559 2976 ft 230 kts 219°
2026-05-06 22:50 32.45751 -16.84031 2982 ft 232 kts 239°
2026-05-06 22:50 32.45175 -16.85823 2993 ft 236 kts 259°
2026-05-06 22:50 32.45106 -16.87716 2985 ft 232 kts 278°
2026-05-06 22:50 32.45555 -16.89545 2990 ft 230 kts 298°
2026-05-06 22:51 32.46463 -16.91073 2997 ft 225 kts 318°
2026-05-06 22:51 32.47714 -16.92130 2998 ft 218 kts 339°
2026-05-06 22:51 32.49146 -16.92604 2992 ft 211 kts 358°
2026-05-06 22:51 32.50586 -16.92455 2997 ft 208 kts 17°
2026-05-06 22:52 32.51456 -16.92032 3000 ft 202 kts 29°
2026-05-06 22:52 32.52582 -16.91008 3002 ft 204 kts 46°
2026-05-06 22:52 32.53395 -16.89653 2996 ft 203 kts 62°
2026-05-06 22:52 32.53884 -16.87598 2994 ft 183 kts 83°
2026-05-06 22:53 32.53834 -16.86107 3002 ft 181 kts 93°
2026-05-06 22:53 32.53748 -16.85114 3003 ft 183 kts 92°
2026-05-06 22:53 32.53899 -16.83620 2990 ft 183 kts 72°
2026-05-06 22:53 32.54445 -16.82285 2969 ft 178 kts 56°
2026-05-06 22:54 32.55302 -16.81227 2412 ft 185 kts 38°
2026-05-06 22:54 32.56475 -16.80542 1994 ft 183 kts 19°
2026-05-06 22:54 32.57666 -16.80349 1994 ft 168 kts
2026-05-06 22:54 32.58824 -16.80362 1999 ft 169 kts
2026-05-06 22:55 32.60004 -16.80351 2001 ft 171 kts
2026-05-06 22:55 32.61200 -16.80347 1788 ft 168 kts
2026-05-06 22:55 32.62304 -16.80353 1549 ft 152 kts
2026-05-06 22:55 32.63327 -16.80352 1357 ft 147 kts
2026-05-06 22:56 32.64390 -16.80346 1174 ft 161 kts
2026-05-06 22:56 32.65595 -16.80344 947 ft 166 kts
2026-05-06 22:56 32.66605 -16.80275 876 ft 132 kts 11°
2026-05-06 22:56 32.67402 -16.79910 805 ft 119 kts 29°
2026-05-06 22:57 32.68056 -16.79300 568 ft 119 kts 36°
2026-05-06 22:57 32.68686 -16.78670 331 ft 116 kts 34°
2026-05-06 22:57 32.69268 -16.78045 161 ft 105 kts 37°
2026-05-06 22:57 32.69730 -16.77526 174 ft 59 kts 44°
2026-05-06 22:58 32.69888 -16.77352 175 ft 25 kts 40°
2026-05-06 22:58 32.69956 -16.77219 176 ft 16 kts 101°
2026-05-06 22:58 32.69899 -16.77178 174 ft 5 kts 175°
2026-05-06 22:58 32.69852 -16.77179 172 ft 10 kts 192°
2026-05-06 22:59 32.69775 -16.77259 168 ft 20 kts 227°
2026-05-06 22:59 32.69661 -16.77395 166 ft 19 kts 225°
2026-05-06 22:59 32.69575 -16.77501 170 ft 21 kts 230°
2026-05-06 22:59 32.69475 -16.77625 168 ft 22 kts 225°
2026-05-06 23:00 32.69398 -16.77721 165 ft 15 kts 226°
2026-05-06 23:00 32.69368 -16.77759 165 ft 0 kts 226°
2026-05-06 23:00 32.69361 -16.77767 165 ft 4 kts 225°
2026-05-06 23:00 32.69326 -16.77810 165 ft 10 kts 225°
2026-05-06 23:01 32.69300 -16.77826 166 ft 1 kts 141°
2026-05-06 23:01 32.69296 -16.77822 166 ft 1 kts 140°
2026-05-06 23:01 32.69287 -16.77814 167 ft 2 kts 148°
2026-05-06 23:01 32.69283 -16.77813 168 ft 0 kts 175°
2026-05-06 23:02 32.69282 -16.77815 168 ft 0 kts 207°
2026-05-06 23:02 32.69286 -16.77835 166 ft 0 kts 324°